TimeEST,TemperatureF,Dew PointF,Humidity,Sea Level PressureIn,VisibilityMPH,Wind Direction,Wind SpeedMPH,Gust SpeedMPH,PrecipitationIn,Events,Conditions,WindDirDegrees,DateUTC
7:22 AM,41.0,32.0,70,29.95,10.0,NNW,12.7,-,N/A,,Scattered Clouds,330,2013-11-07 12:22:00
7:53 AM,41.0,35.6,81,29.96,10.0,WNW,11.5,-,N/A,,Scattered Clouds,290,2013-11-07 12:53:00
8:53 AM,42.8,33.8,70,29.97,10.0,West,12.7,-,N/A,,Scattered Clouds,270,2013-11-07 13:53:00
9:36 AM,42.8,32.0,66,29.98,10.0,WNW,13.8,24.2,N/A,,Scattered Clouds,290,2013-11-07 14:36:00
9:53 AM,44.1,33.1,65,30.00,10.0,WNW,16.1,-,N/A,,Scattered Clouds,290,2013-11-07 14:53:00
10:53 AM,44.1,32.0,63,30.01,10.0,West,15.0,-,N/A,,Mostly Cloudy,280,2013-11-07 15:53:00
11:53 AM,42.1,30.9,65,30.00,10.0,NW,12.7,-,N/A,,Mostly Cloudy,310,2013-11-07 16:53:00
12:17 PM,42.8,33.8,70,29.98,10.0,West,12.7,-,0.00,Rain,Light Rain,270,2013-11-07 17:17:00
12:53 PM,41.0,32.0,70,30.00,10.0,West,10.4,-,N/A,Rain,Light Rain,270,2013-11-07 17:53:00
1:07 PM,41.0,33.8,76,29.98,10.0,West,10.4,-,0.00,,Mostly Cloudy,270,2013-11-07 18:07:00
1:53 PM,43.0,32.0,65,29.99,10.0,WNW,16.1,-,0.00,,Overcast,290,2013-11-07 18:53:00
2:53 PM,42.1,30.0,62,29.99,10.0,West,16.1,-,N/A,,Mostly Cloudy,260,2013-11-07 19:53:00
3:53 PM,42.1,30.0,62,29.98,10.0,West,13.8,-,N/A,,Mostly Cloudy,270,2013-11-07 20:53:00
4:53 PM,41.0,30.9,67,29.98,10.0,West,9.2,-,N/A,,Mostly Cloudy,280,2013-11-07 21:53:00
5:53 PM,39.9,30.0,68,30.00,10.0,WNW,12.7,-,N/A,,Mostly Cloudy,290,2013-11-07 22:53:00
6:53 PM,39.9,28.9,65,30.02,10.0,WNW,11.5,23.0,N/A,,Overcast,290,2013-11-07 23:53:00
7:53 PM,39.0,28.0,65,30.03,10.0,West,15.0,23.0,N/A,,Overcast,280,2013-11-08 00:53:00
8:53 PM,37.9,28.9,70,30.04,10.0,West,15.0,-,N/A,,Overcast,270,2013-11-08 01:53:00
9:16 PM,37.4,28.4,70,30.01,10.0,West,19.6,-,0.00,Rain,Light Rain,270,2013-11-08 02:16:00
9:53 PM,37.9,28.9,70,30.04,10.0,West,16.1,-,0.00,Rain,Light Rain,270,2013-11-08 02:53:00
10:33 PM,37.4,28.4,70,30.00,10.0,West,15.0,-,0.00,,Overcast,260,2013-11-08 03:33:00
10:53 PM,37.9,28.0,68,30.02,10.0,West,15.0,-,0.00,,Overcast,260,2013-11-08 03:53:00
11:53 PM,37.9,27.0,65,30.01,10.0,West,11.5,-,N/A,,Overcast,270,2013-11-08 04:53:00